Flag for Canada Weather past 2 weeks in Rankin Inlet, Nunavut Territory, Canada

Now
27 °F

Light snow. Low clouds.


Feels Like: 14 °F
Forecast: 24 / 27 °F
Wind: 17 mph from Northeast

Location: Rankin Inlet

Current Time: Oct 23, 2014 at 7:57:11 AM

Latest Report: Oct 23, 2014 at 7:00 AM


Visibility: 10 mi

Pressure: 30.19 "Hg

Humidity: 86%

Dew point: 23 °F

Location of Rankin InletLocation

Historic Weather in Rankin Inlet — Graph

°F

Rankin Inlet temperature yesterday

Maximum temperature yesterday: 34 °F (at 12:00 AM)
Minimum temperature yesterday: 28 °F (at 2:52 PM)
Average temperature yesterday: 32 °F

Past Weeks' High & Low Weather Summary

 TemperatureHumidityPressure
High36 °F (Oct 8, 3:00 PM)100% (Oct 8, 8:00 AM)30.40 "Hg (Oct 8, 8:00 AM)
Low18 °F (Oct 11, 8:00 AM)69% (Oct 12, 12:00 PM)29.47 "Hg (Oct 21, 5:00 PM)
Average27 °F87%29.92 "Hg
* Reported Oct 8 6:00 AM — Oct 23 6:00 AM, Rankin Inlet, Weather by CustomWeather, © 2014

Note: Actual official high and low records may vary slightly from our data, if they occured in-between our weather recording intervals... More about our weather records

Advertising

Rankin Inlet weather history for previous 24 hours

 ConditionsComfort  
Time TempWeatherWind HumidityBarometerVisibility
6:00 AM
Oct 23
27 °FLow clouds.16 mph86%30.16 "Hg8 mi
5:00 AM27 °FLow clouds.16 mph86%30.15 "Hg10 mi
4:00 AM27 °FLow clouds.15 mph93%30.14 "Hg10 mi
3:00 AM27 °FLow clouds.15 mph93%30.12 "Hg10 mi
2:00 AM27 °FLow clouds.16 mph93%30.09 "Hg10 mi
1:00 AM27 °FLow clouds.14 mph93%30.08 "Hg10 mi
12:00 AM28 °FLow clouds.14 mph93%30.06 "Hg10 mi
11:00 PM
Oct 22
28 °FLow clouds.13 mph93%30.03 "Hg8 mi
10:00 PM28 °FLow clouds.16 mph93%30.01 "Hg8 mi
9:00 PM30 °FLow clouds.17 mph86%29.98 "Hg10 mi
8:00 PM30 °FLow clouds.16 mph93%29.95 "Hg10 mi
7:00 PM30 °FLow clouds.13 mph93%29.92 "Hg10 mi
6:00 PM28 °FIce fog.13 mph100%29.90 "Hg3 mi
5:00 PM28 °FIce fog.12 mph93%29.88 "Hg6 mi
4:00 PM28 °FIce fog.14 mph100%29.85 "Hg6 mi
3:00 PM28 °FIce fog.17 mph100%29.82 "Hg1 mi
2:52 PM28 °FIce fog.16 mph100%29.81 "Hg1 mi
2:00 PM30 °FBroken clouds.15 mph93%29.80 "Hg15 mi
1:00 PM32 °FBroken clouds.15 mph93%29.78 "Hg15 mi
12:47 PM32 °FPartly sunny.14 mph93%29.77 "Hg15 mi
12:00 PM34 °FPartly sunny.14 mph93%29.75 "Hg15 mi
11:00 AM34 °FPartly sunny.10 mph93%29.73 "Hg15 mi
10:00 AM34 °FLow clouds.10 mph93%29.72 "Hg15 mi
9:00 AM34 °FOvercast.10 mph93%29.70 "Hg15 mi
8:00 AM34 °FOvercast.9 mph93%29.67 "Hg15 mi
7:00 AM34 °FOvercast.9 mph93%29.65 "Hg12 mi
Weather by CustomWeather, © 2014

See weather overviewHow to use our weather pages